www.pogodaiklimat.ru
ПОГОДА в Суомуссалми
Время
(UTC), дата
12 12.10
15 12.10
18 12.10
21 12.10
00 13.10
03 13.10
06 13.10
09 13.10
12 13.10
15 13.10
18 13.10
21 13.10
00 14.10
03 14.10
06 14.10
09 14.10
12 14.10
15 14.10
18 14.10
21 14.10
00 15.10
03 15.10
06 15.10
09 15.10
12 15.10
15 15.10
18 15.10
21 15.10
00 16.10
03 16.10
06 16.10
09 16.10
12 16.10
15 16.10
18 16.10
21 16.10
00 17.10
03 17.10
06 17.10
09 17.10
12 17.10
15 17.10
18 17.10
21 17.10
00 18.10
03 18.10
06 18.10
09 18.10
12 18.10
15 18.10
18 18.10
21 18.10
00 19.10
03 19.10
06 19.10
Ветер
(напр.,м/с)
Видим. Явления Облачность Т
(С)
Тd
(С)
f
(%)
Тe
(С)
Тes
(С)
Комфортность P
(гПа)
Po
(гПа)
Тmin
(С)
Tmax
(С)
R
(мм)
R24
(мм)
S
(см)
В 1-1
{3}
7000 м ливневой дождь 10/10 600 м
[]
+6.6 +6.0 96 +5 +5 тепло 989.5 962.8 0.2
СЗ 1-1
{2}
22 км {ливн. осадки} 9/9 600 м
[]
+5.5 +5.2 98 +4 +4 по сезону 990.3 963.6
З 2-3
{3}
100 м пыльная буря {ливн. осадки, метель} ?/? +5.1 +5.0 99 +2 +2 по сезону 991.3 964.5 +4.7 +7.4
СЗ 2-4
{5}
23 км {метель} 9/9 50 м
[]
+3.0 +2.9 99 -0 -0 по сезону 993.2 966.1
СЗ 2-4
{5}
40 км слаб. ливневой дождь {туман} 10/10 50 м
[]
+2.2 +2.1 99 -1 -1 по сезону 994.6 967.4
СЗ 2-4
{4}
8000 м в посл. час морось {ливн. осадки} 10/10 50 м
[]
+1.5 +1.4 99 -2 -2 по сезону 996.0 968.7
СЗ 2-3
{3}
16 км {ливн. осадки, метель} 10/10 50 м
[]
+1.2 +1.1 99 -2 -2 по сезону 997.1 969.7 +1.2 +5.1 <0.5
З 3-5
{5}
19 км 10/10 100 м
[]
+0.9 +0.4 96 -4 -4 прохладно 999.0 971.5
СЗ 3-5
{5}
5000 м слаб. снег {туман} 10/10 100 м
[]
+0.2 -0.4 96 -5 -5 холодно 1001.0 973.4
СЗ 2-3
{5}
2100 м слаб. снег 9/9 100 м
[]
-0.3 -0.6 98 -4 -4 прохладно 1002.7 975.0 0.8
З 2-5
{6}
2200 м слаб. снег 9/9 100 м
[]
-0.8 -1.2 97 -5 -5 холодно 1004.5 976.7 -0.8 +1.4 0.3
З 2-4
{7}
7000 м слаб. снег 10/10 100 м
[]
-0.6 -1.1 96 -5 -5 холодно 1006.1 978.3
З 2-4
{6}
13 км слаб. снег 10/10 100 м
[]
-0.8 -1.1 98 -5 -5 холодно 1007.2 979.4
З 3-5
{5}
35 км слаб. снег {дождь} 10/10 100 м
[]
-0.4 -0.8 97 -5 -5 холодно 1007.4 979.6
З 2-3
{4}
50 км {снег, дождь} 10/10 100 м
[]
-0.4 -0.9 96 -4 -4 прохладно 1008.0 980.2 -0.9 -0.4 3
З 1-3
{5}
45 км 10/10 200 м
[]
+0.3 -0.4 95 -2 -2 по сезону 1008.8 981.0
З 2-3
{4}
45 км 10/10 200 м
[]
+0.4 -0.3 95 -3 -3 прохладно 1008.9 981.2
З 3-4
{4}
40 км слаб. ливневой дождь 10/10 100 м
[]
+0.3 -0.2 96 -5 -5 холодно 1009.4 981.6
З 3-6
{6}
50 км {ливн. осадки, снег} 10/10 100 м
[]
+0.2 -0.5 95 -5 -5 холодно 1010.6 982.8 -0.4 +0.5
СЗ 3-5
{5}
23 км 10/10 50 м
[]
0.0 -0.4 97 -5 -5 холодно 1012.1 984.2
СЗ 3-5
{6}
25 км 10/10 50 м
[]
-0.2 -0.6 97 -5 -5 холодно 1014.0 986.0
З 2-4
{5}
6000 м дымка 10/10 50 м
[]
-0.6 -0.9 98 -5 -5 холодно 1016.4 988.3
З 2-3
{4}
50 км 9/9 50 м
[]
-0.4 -0.8 97 -4 -4 прохладно 1017.9 989.8 -0.7 +0.3 <0.5
ЮЗ 1-2
{3}
16 км 10/10 50 м
[]
+0.3 -0.2 96 -2 -2 по сезону 1020.0 991.9
З 2-4
{4}
50 км 1/0 300 м
[]
+1.4 -1.1 83 -2 -1 по сезону 1021.4 993.4
Ю 1-1
{2}
35 км ясно -1.3 -1.6 98 -4 -4 прохладно 1022.0 993.8
ЮВ 1-2
{2}
50 км ясно -3.3 -3.6 98 -6 -6 холодно 1022.3 993.8 -3.3 +1.9
В 1-2
{2}
50 км 4/0 1000 м
[]
-4.0 -4.4 97 -7 -7 холодно 1022.4 993.8
ЮВ 1-3
{4}
11 км слаб. ливневой снег 9/9 300 м
[]
-1.0 -1.2 99 -3 -3 прохладно 1021.3 993.0
Ю 1-5
{5}
30 км в посл. час переохл. осадки (гололёд) 9/9 100 м
[]
-0.7 -1.0 98 -3 -3 прохладно 1020.5 992.3 0.1
Ю 2-4
{4}
1700 м слаб. снег 9/9 50 м
[]
+0.1 -0.1 99 -4 -4 прохладно 1020.0 991.9 -4.3 +0.1 0.3 <0.5
ЮЗ 1-2
{3}
4300 м в посл. час переохл. осадки (гололёд) 9/0 50 м
[]
+0.5 +0.2 98 -2 -1 по сезону 1020.1 992.1 0.1
ЮЗ 1-3
{3}
10 км {ливн. осадки, снег} 9/0 50 м
[]
+0.8 +0.6 99 -1 -1 по сезону 1019.6 991.6
В 1-1
{1}
300 м сильная пыльная буря {метель} ?/? +0.5 +0.4 99 -2 -2 по сезону 1019.2 991.2
СВ 1-2
{2}
11 км в посл. час зёрна {метель} 9/0 300 м
[]
-0.3 -0.4 99 -3 -3 прохладно 1019.1 991.0 -0.4 +0.9
В 2-3
{3}
20 км 10/10 200 м
[]
+0.1 0.0 99 -4 -4 прохладно 1019.4 991.3
В 2-5
{5}
50 км 10/10 200 м
[]
-0.8 -1.1 98 -5 -5 холодно 1019.4 991.2
В 3-6
{6}
50 км 10/10 100 м
[]
-1.3 -2.0 95 -6 -6 холодно 1019.3 991.0
В 1-2
{2}
30 км слаб. ливневой снег 10/10 300 м
[]
-0.9 -1.2 98 -3 -3 прохладно 1019.2 991.0 -1.4 +0.1 <0.5
В 3-6
{6}
24 км туман местами {ливн. осадки} 10/10 300 м
[]
-0.3 -2.3 86 -5 -5 холодно 1019.5 991.4
ЮВ 4-6
{6}
10 км слаб. ливневой снег {дождь} 9/9 300 м
[]
-0.4 -1.6 92 -6 -6 холодно 1018.7 990.5
В 4-7
{8}
50 км в посл. час дождь {ливн. осадки} 9/9 300 м
[]
-1.3 -3.1 88 -7 -7 холодно 1018.3 990.1
В 5-8
{9}
50 км {ливн. осадки, снег} 9/0 300 м
[]
-1.1 -3.1 86 -7 -7 холодно 1017.4 989.2 -1.3 +0.2
ЮВ 4-7
{8}
50 км 10/10 200 м
[]
-1.3 -2.7 90 -7 -7 холодно 1016.7 988.5
ЮВ 3-6
{7}
50 км 10/0 300 м
[]
-1.4 -2.9 90 -6 -6 холодно 1015.6 987.4
ЮВ 2-5
{5}
15 км слаб. снег {туман} 10/0 300 м
[]
-1.0 -2.5 90 -5 -5 холодно 1014.4 986.3
ЮВ 2-4
{4}
5000 м слаб. снег {туман} 10/10 100 м
[]
-1.2 -1.5 98 -5 -5 холодно 1013.4 985.3 -1.6 -1.0 0.1 <0.5
ЮВ 2-4
{4}
8000 м в посл. час зёрна {ливн. осадки} 10/10 100 м
[]
-0.3 -0.6 98 -4 -4 прохладно 1013.0 985.0 0.1
Ю 1-4
{4}
4400 м дымка {ливн. осадки, снег} 10/0 50 м
[]
+0.1 -0.1 99 -2 -2 по сезону 1011.9 984.0
ЮВ 1-3
{4}
1100 м в посл. час дождь {ливн. осадки, туман} ?/? +0.3 +0.2 99 -2 -2 по сезону 1011.4 983.6
ЮВ 1-4
{4}
600 м туман {ливн. осадки, осадки} ?/? +0.6 +0.5 99 -2 -2 по сезону 1010.9 983.1 -1.2 +0.6
ЮВ 1-3
{4}
500 м туман {ливн. осадки, осадки} ?/? +1.1 +1.1 100 -1 -1 по сезону 1010.2 982.5
ЮВ 1-3
{3}
3000 м слаб. ливневой дождь {осадки} 10/0 50 м
[]
+1.5 +1.5 100 -1 -1 по сезону 1009.1 981.4 0.5
ЮВ 1-3
{3}
700 м сильная пыльная буря {ливн. осадки, дождь} ?/? +2.2 +2.2 100 0 0 по сезону 1008.1 980.5
ЮВ 1-1
{2}
300 м туман {ливн. осадки, дождь} ?/? +2.6 +2.5 99 +1 +1 по сезону 1007.6 980.1 +0.6 +2.6 <0.5
Местоположение метеостанции Суомуссалми (Финляндия): широта 64.93 долгота 28.75 высота над уровнем моря 223 м.
В архиве по умолчанию представлена погода в Суомуссалми за последнюю неделю. Архивные данные за месяц целиком и за предыдущие месяцы, начиная с января 2011 года, Вы можете получить, выбрав интересующий диапазон дат из раскрывающегося списка и нажав кнопку "Найти!".
*Определитесь, кто Вы:
Внимание! Время в таблицах - всемирное. Для получения местного времени необходимо прибавить поправку, которая равна 1 ч.
Смотрите также архив погоды в соседних городах и на ближайших метеорологических станциях:
Партнеры нашего сайта:      
Пояснения к столбцам:
  • Ветер - указаны скорость ветра в м/с - средняя за 10 мин, порывы в срок и между сроками (в фигурных скобках) и направление, откуда дует ветер: С - северный,
  • СВ - северо-восточный, В - восточный, ЮВ - юго-восточный, Ю - южный, ЮЗ - юго-западный, З - западный, СЗ - северо-западный.
  • Видимость - горизонтальная дальность видимости в метрах или километрах. При видимости от 1 до 10 км при отсутствии осадков обычно наблюдается дымка, при ухудшении видимости до 1 км и менее - туман. В сухую погоду видимость может ухудшаться дымом, пылью или мглою.
  • Явления - указаны атмосферные явления, наблюдавшиеся в срок или в последний час перед сроком; фигурными скобками обозначены явления, наблюдавшиеся между сроками (за 1-3 часа до срока); квадратными скобками обозначены град или гололедные отложения с указанием их диаметра в мм.
  • Облачность - указаны через наклонную черту общая и нижняя облачность в баллах и высота нижней границы облаков в метрах; квадратными скобками обозначены формы облаков: Ci - перистые, Cs - перисто-слоистые, Cc - перисто-кучевые, Ac - высококучевые, As - высокослоистые, Sc - слоисто-кучевые, Ns - слоисто-дождевые, Cu - кучевые, Cb - кучево-дождевые. Подробнее классификацию облаков см. в Атласе облаков (PDF).
  • T - Температура воздуха - температура, измеренная на высоте 2 м над землей.
  • Td - Температура точки росы - температура, при понижении до которой содержащийся в воздухе водяной пар достигнет насыщения.
  • f - Относительная влажность воздуха - влажноcть воздуха, измеренная на высоте 2 м над землей.
  • Te - Эффективная температура - температура, которую ощущает одетый по сезону человек в тени. Характеристика душности погоды. При расчете учитывается влияние влажности воздуха и скорости ветра на теплоощущения человека.
  • Tes - Эффективная температура на солнце - температура, которую ощущает человек, с поправкой на солнечный нагрев. Характеристика знойности погоды. Зависит от высоты солнца над горизонтом, облачности и скорости ветра. Ночью, в пасмурную погоду, а также при ветре 12 м/с и более поправка равна нулю.
  • P - Атмосферное давление - приведенное к уровню моря атмосферное давление.
  • Po - Атмосферное давление - измеренное на уровне метеостанции атмосферное давление.
  • Tmin - Минимальная температура - минимум температуры воздуха на высоте 2 м над землей.
  • Tmax - Максимальная температура - максимум температуры воздуха на высоте 2 м над землей.
  • R - Количество осадков - Количество выпавших осадков за период времени, мм. При наведении курсора мыши на число - период времени, за который выпало указанное количество осадков.
  • R24 - Количество осадков - Количество выпавших осадков за 24 часа, мм.
  • S - Снежный покров - Высота снежного покрова, см. При наведении курсора мыши на число - состояние снежного покрова и степень покрытия местности в баллах.